SCP
0 0 0 0 0 0 0 0 0 0 0 0 0 0 0 0 0 0 0 0 0 0 0 0 0 0 0 0 0 0 0 0 0 0 0 0 0 0 0 0 0 0 0 0 0
0 0 0 0 0 0 0 0 0 0 0 0 0 0 0 0 0 0 0 0 0 0 0 0 0 0 0 0 0 0 0 0 0 0 0 0 0 0 0 0 0 0 0 0 0
0 0 0 0 0 0 0 0 0 0 0 0 0 0 0 0 0 0 0 0 0 0 0 0 0 0 0 0 0 0 0 0 0 0 0 0 0 0 0 0 0 0 0 0 0
0 0 0 0 0 0 0 0 0 0 0 0 0 0 0 0 0 0 0 0 0 0 0 0 0 0 0 0 0 0 0 0 0 0 0 0 0 0 0 0 0 0 0 0 0
0 0 0 0 0 0 0 0 0 0 0 0 0 0 0 0 0 0 0 0 0 0 0 0 0 0 0 0 0 0 0 0 0 0 0 0 0 0 0 0 0 0 0 0 0
0 0 0 0 0 0 0 0 0 0 0 0 0 0 0 0 0 0 0 0 0 0 0 0 0 0 0 0 0 0 0 0 0 0 0 0 0 0 0 0 0 0 0 0 0
0 0 0 0 0 0 0 0 0 0 0 0 0 0 0 0 0 0 0 0 0 0 0 0 0 0 0 0 0 0 0 0 0 0 0 0 0 0 0 0 0 0 0 0 0
0 0 0 0 0 0 0 0 0 0 0 0 0 0 0 0 0 0 0 0 0 0 0 0 0 0 0 0 0 0 0 0 0 0 0 0 0 0 0 0 0 0 0 0 0
0 0 0 0 0 0 0 0 0 0 0 0 0 0 0 0 0 0 0 0 0 0 0 0 0 0 0 0 0 0 0 0 0 0 0 0 0 0 0 0 0 0 0 0 0
0 0 0 0 0 0 0 0 0 0 0 0 0 0 0 0 0 0 0 0 0 0 0 0 0 0 0 0 0 0 0 0 0 0 0 0 0 0 0 0 0 0 0 0 0
0 0 0 0 0 0 0 0 0 0 0 0 0 0 0 0 0 0 0 0 0 0 0 0 0 0 0 0 0 0 0 0 0 0 0 0 0 0 0 0 0 0 0 0 0
-0 0 0 0 0 0 1 0 0 0 0 0 0 0 0 0 0 0 0 0 0 0 0 0 0 0 0 0 0 0 0 0 0 0 0 0 0 0 0 0 0 0 0 -0 0
-0 0 0 0 0 1 0 0 0 0 0 0 0 0 0 0 0 0 0 0 0 0 0 0 0 0 0 0 0 0 0 0 0 0 0 0 0 -0 -0 0 0 0 -0 -0 -0
0 0 0 0 0 0 0 0 0 0 0 0 0 0 0 0 0 0 0 0 0 0 0 0 0 0 0 0 0 0 0 0 0 0 0 0 0 0 0 0 0 0 0 0 0
0 -0 -0 0 0 0 0 0 0 0 0 0 0 0 0 0 0 0 0 0 0 0 0 0 0 0 0 0 0 0 0 0 0 0 0 0 0 0 0 0 0 0 0 0 0
0 -0 -0 0 0 0 1 1 0 0 0 0 0 0 0 0 0 0 0 0 0 0 0 0 0 0 0 0 0 0 0 0 0 0 0 0 0 0 0 0 0 0 0 0 0
0 0 -0 0 0 0 1 0 0 0 0 0 0 0 0 0 0 0 0 0 0 0 0 0 0 0 0 0 0 0 0 0 0 0 0 0 0 0 0 0 0 0 0 0 0
0 0 0 0 0 0 1 0 0 0 0 0 0 0 0 0 0 0 0 0 0 0 0 0 0 0 0 0 0 0 0 0 0 0 0 0 0 0 0 0 0 0 0 0 0
0 0 0 -0 0 0 0 1 0 0 0 0 0 0 0 0 0 0 0 0 0 0 0 0 0 0 0 0 0 0 0 0 0 0 0 0 0 0 0 0 0 0 0 0 0
0 0 0 0 0 0 0 0 0 0 0 0 0 0 0 0 0 0 0 0 0 0 0 0 0 0 0 0 0 0 0 0 0 0 0 0 0 0 0 0 0 0 0 0 0
0 0 0 0 0 0 -0 -0 0 0 0 0 0 0 0 0 0 0 0 0 0 0 0 0 0 0 0 0 0 0 0 0 0 0 0 0 0 0 0 0 0 0 0 0 0
0 0 0 0 0 -0 -0 0 0 0 0 0 0 0 0 0 0 0 0 0 0 0 0 0 0 0 0 0 0 0 0 0 0 0 0 0 0 0 0 0 0 0 0 0 0
0 0 0 0 0 -0 -0 -0 0 0 0 0 0 0 0 0 0 0 0 0 0 0 0 0 0 0 0 0 0 0 0 0 0 0 0 0 0 0 0 0 0 0 0 0 -0
0 0 0 0 0 0 0 0 0 0 0 0 0 0 0 0 0 0 0 0 0 0 0 0 0 0 0 0 0 0 0 0 0 0 0 0 0 0 0 0 0 0 0 0 0
0 0 0 0 0 0 0 0 0 0 0 0 0 0 0 0 0 0 0 0 0 0 0 0 0 0 0 0 0 0 0 0 0 0 0 0 0 0 0 0 0 0 0 0 0
0 0 0 0 0 -0 0 0 0 0 0 0 0 0 0 0 0 0 0 0 0 0 0 0 0 0 0 0 0 0 0 0 0 0 0 0 0 0 0 0 0 0 0 0 0
0 0 0 -0 0 0 0 0 0 0 0 0 0 0 0 0 0 0 0 0 0 0 0 0 0 0 0 0 0 0 0 0 0 0 0 0 0 0 0 0 0 0 0 0 0
Wind_Speed_500mb
52 47 43 40 37 36 32 32 37 35 31 35 35 36 35 34 32 29 26 23 20 25 14 18 20 14 14 18 14 11 19 25 29 23 16 11 15 7 4 9 8 7 2 8 15
58 55 51 46 40 36 34 32 35 38 32 32 33 32 32 32 30 36 33 33 24 20 17 11 14 16 24 21 12 25 23 35 30 19 15 17 17 14 12 17 18 16 12 12 15
57 60 58 53 47 40 35 33 31 36 34 32 28 28 27 23 19 24 34 42 33 24 18 17 12 18 25 20 26 19 33 29 24 16 19 19 20 15 19 16 17 15 18 19 21
64 59 63 58 54 47 39 36 33 32 35 31 27 23 20 18 14 11 21 35 44 27 16 11 16 21 20 22 30 21 31 41 27 7 13 23 23 20 27 31 4 12 12 19 22
75 65 62 63 59 54 46 40 37 33 36 31 29 25 23 20 30 17 5 14 38 34 26 22 23 25 22 18 18 27 36 29 33 8 20 13 27 35 39 39 33 24 23 22 24
78 77 66 65 63 60 55 46 42 37 36 33 33 30 28 35 21 33 12 6 26 32 30 29 16 21 13 20 21 8 37 29 25 28 26 25 39 41 33 47 43 37 38 37 34
73 78 79 65 66 63 60 52 46 39 37 35 35 35 35 39 16 27 26 12 21 34 29 28 22 21 11 11 18 15 14 22 33 40 34 25 39 46 53 48 46 44 44 40 43
75 77 77 79 66 67 64 58 51 44 39 36 38 31 36 35 35 18 25 24 15 24 27 25 20 22 18 7 7 13 21 26 26 38 17 17 37 29 39 51 51 54 55 54 50
80 76 81 76 78 68 67 62 54 47 42 40 40 32 17 28 41 39 20 20 19 21 22 21 21 23 19 18 19 19 23 33 34 17 24 29 28 22 25 42 45 44 44 43 45
69 81 80 83 79 75 71 66 59 49 46 42 39 27 34 29 29 47 30 27 24 28 19 25 22 19 24 24 21 24 32 29 24 10 25 36 41 37 40 38 43 45 48 49 52
69 67 80 82 83 82 73 73 56 29 71 43 26 32 5 30 32 37 43 37 28 39 26 42 29 36 38 40 30 9 26 25 20 9 15 32 42 42 53 54 52 53 57 61 66
106 67 80 78 83 83 84 96 90 36 40 71 23 68 12 28 19 37 45 38 43 33 38 25 39 35 35 33 34 37 21 20 16 16 22 35 48 45 54 58 58 57 61 66 65
82 100 63 74 80 82 97 108 85 44 15 55 47 47 38 31 30 50 60 52 45 39 47 33 5 47 34 33 33 34 35 27 28 27 32 39 51 43 38 59 61 61 66 63 63
88 98 83 63 80 94 102 100 87 62 13 22 34 32 44 32 24 37 60 57 25 44 39 32 34 22 38 39 32 32 28 23 25 16 12 9 20 31 28 29 26 33 37 45 49
82 82 104 83 57 94 107 97 98 49 28 38 40 30 61 54 37 40 64 58 34 31 36 22 31 29 41 33 32 20 12 17 23 21 26 30 17 12 19 23 31 23 27 36 41
83 76 75 104 87 91 94 91 92 22 23 29 45 48 43 61 36 52 58 45 37 29 41 35 0 20 32 28 30 13 14 16 13 13 17 28 27 34 30 31 33 30 16 20 28
82 81 84 102 67 82 86 83 32 36 23 14 47 63 68 38 40 44 55 48 29 19 27 20 17 8 16 31 27 25 26 9 10 10 16 8 23 39 4 14 19 25 34 32 29
81 84 80 85 110 67 90 38 50 39 33 17 38 65 58 54 43 48 57 49 50 41 29 29 20 34 30 37 19 41 35 11 14 16 15 23 23 18 8 12 31 31 41 37 30
65 80 82 86 98 93 60 54 53 43 32 37 54 60 36 46 28 42 62 61 59 57 28 35 36 43 42 29 32 34 38 31 7 6 6 21 36 36 37 31 35 39 39 37 19
75 74 91 88 108 83 26 36 28 27 43 59 33 41 39 47 37 44 54 56 59 60 53 21 20 20 25 34 38 27 30 17 18 13 16 26 35 28 6 8 25 19 4 12 9
71 46 79 88 74 38 18 26 17 56 66 52 43 24 34 43 49 57 59 33 62 61 54 25 18 13 26 36 40 21 26 25 23 23 16 21 23 19 27 17 18 6 9 22 30
73 28 44 67 26 8 21 11 11 57 78 31 40 50 51 60 54 55 48 51 90 60 62 44 14 13 41 18 37 47 42 44 19 24 21 27 39 12 10 11 12 34 34 26 42
64 32 40 73 25 29 8 16 5 42 61 41 33 26 51 44 33 48 51 54 49 54 50 41 17 14 13 12 26 29 45 39 44 27 22 24 27 17 25 20 14 15 35 41 47
30 10 24 55 25 20 20 34 28 59 45 39 44 41 54 45 27 44 41 40 19 62 51 50 22 36 33 20 25 36 45 48 39 24 46 36 58 54 41 35 34 46 40 46 54
42 11 33 15 23 24 29 27 31 25 11 45 51 52 55 35 38 31 44 21 24 49 45 28 34 35 44 22 19 26 40 48 51 59 43 57 53 58 46 36 36 46 53 47 51
21 12 10 11 35 35 41 18 56 32 25 21 39 59 56 40 48 41 59 34 31 38 50 37 8 31 16 28 19 19 30 47 54 62 50 60 48 58 53 54 51 39 43 47 36
29 43 14 23 21 19 30 17 40 49 22 41 64 46 51 48 57 59 65 57 24 59 59 44 17 16 28 18 13 12 56 43 50 49 52 48 64 59 37 32 36 39 41 37 33
Wind_Direction_500mb
246 248 251 250 247 246 244 240 236 239 239 238 235 232 240 248 252 255 251 244 245 251 258 242 227 233 245 245 239 244 245 248 237 238 247 155 204 174 191 249 219 228 275 131 168
242 243 244 246 246 243 242 240 234 236 238 238 235 233 234 245 254 259 242 238 249 248 232 233 214 208 219 238 231 228 237 240 254 261 244 192 221 180 205 201 220 231 212 222 201
241 240 241 242 241 241 240 239 236 233 234 234 237 232 235 239 274 258 234 233 234 234 222 222 216 202 220 236 224 233 246 251 248 247 258 228 222 205 226 229 223 217 221 209 202
239 238 238 238 240 239 238 235 233 231 230 230 227 223 215 191 233 253 248 224 216 218 210 203 195 201 213 214 225 252 244 257 266 207 233 229 240 219 232 241 243 240 234 204 209
238 237 236 235 236 237 237 236 233 226 223 226 212 206 187 211 241 267 290 227 209 212 207 202 202 208 217 232 216 246 253 245 249 235 241 248 234 245 252 247 250 246 237 228 230
240 236 235 234 233 232 233 232 229 224 217 218 207 202 197 229 241 242 248 255 199 201 207 205 215 211 270 232 217 313 248 242 246 251 245 236 246 242 241 250 251 244 247 247 246
237 237 234 233 231 230 230 230 226 223 216 212 208 209 218 224 245 230 216 217 199 203 205 206 211 200 205 230 230 227 237 240 249 248 244 254 255 245 246 254 257 252 248 249 248
240 235 233 232 231 228 227 225 222 218 216 208 203 203 227 232 237 233 207 216 203 191 203 204 208 217 216 137 180 232 241 250 241 230 237 224 263 253 238 255 255 255 255 255 251
237 236 234 230 228 226 224 223 220 214 210 201 200 199 227 220 220 209 195 205 187 180 182 192 196 205 191 205 219 210 244 231 248 222 241 220 270 262 253 251 258 262 258 258 259
236 234 234 233 228 224 221 218 214 208 202 200 204 197 233 211 195 206 205 182 178 178 178 185 192 202 209 203 210 227 229 251 243 217 238 255 256 265 266 259 267 270 268 264 261
231 232 231 231 229 223 216 213 189 193 196 186 195 200 12 192 194 192 189 181 191 187 189 192 198 208 205 215 233 305 280 248 240 227 281 259 268 269 269 262 257 258 263 264 261
246 246 224 226 226 222 216 208 194 197 193 207 213 205 188 182 173 190 181 177 186 196 198 182 222 214 222 227 230 241 251 252 256 258 280 283 277 273 265 259 254 255 255 258 262
245 243 225 225 225 220 215 211 197 182 182 203 206 204 197 186 200 194 187 190 192 194 198 196 188 213 217 221 228 232 241 249 267 290 285 280 283 265 248 249 248 250 252 256 260
239 236 231 219 223 218 217 214 196 178 201 178 194 205 192 187 219 199 192 185 190 204 198 229 224 200 210 219 210 229 224 251 267 272 267 58 293 285 290 275 249 242 246 257 261
233 242 237 232 229 215 214 209 198 173 222 163 174 181 178 178 140 197 189 201 203 184 193 203 207 198 212 211 205 232 216 225 242 254 282 269 274 271 246 264 264 243 244 264 273
231 234 234 232 251 218 210 206 176 208 226 162 155 171 165 196 191 161 180 200 209 211 205 215 111 222 219 205 205 194 179 203 227 239 249 243 234 272 254 243 263 274 263 277 288
231 236 230 232 245 212 201 191 189 214 135 188 163 168 180 174 178 171 176 186 179 165 205 212 199 192 243 199 196 187 183 181 216 222 251 205 217 244 16 314 282 287 291 292 292
230 230 228 227 232 213 202 194 222 186 164 149 166 172 182 169 185 182 176 189 201 199 173 193 207 204 195 190 182 192 187 192 211 217 255 204 242 249 262 277 249 264 285 290 291
221 223 227 229 234 225 245 209 207 187 141 154 167 173 177 176 156 179 189 195 194 193 196 195 219 181 179 195 179 198 215 217 315 192 276 239 251 262 256 244 250 261 273 289 292
213 220 225 217 224 224 231 252 208 140 159 158 166 178 174 172 165 186 193 206 200 201 215 179 193 190 166 199 211 199 194 193 215 220 233 244 249 250 179 242 208 277 298 320 337
211 210 225 220 219 209 244 244 207 164 161 175 163 164 172 172 182 187 190 183 196 201 206 206 205 185 154 207 186 186 203 213 200 227 231 259 254 256 256 223 250 253 281 324 325
204 214 206 199 201 213 212 248 206 174 170 181 167 163 172 179 186 190 199 205 195 188 195 203 191 167 204 195 222 210 215 203 199 210 235 263 269 241 208 161 273 277 305 324 319
201 180 207 190 210 213 239 208 229 186 178 156 165 165 171 170 188 191 204 192 188 187 187 188 186 149 172 267 225 231 224 223 232 248 230 221 253 203 238 253 261 257 315 318 312
180 190 217 197 192 211 225 254 181 193 176 168 167 162 167 177 176 185 199 182 176 193 185 174 191 202 201 213 157 206 219 223 226 234 239 240 259 266 266 281 292 314 314 310 311
197 191 181 164 181 189 235 199 178 171 199 188 176 171 161 165 179 181 187 151 179 199 184 187 215 212 230 215 180 202 211 216 217 229 225 240 243 262 272 284 315 309 303 312 315
205 220 134 155 154 176 224 240 181 169 157 183 171 164 171 166 172 177 178 174 178 190 187 201 205 223 235 243 245 245 221 220 223 231 238 249 258 259 277 299 290 292 311 309 316
206 209 177 160 150 168 209 201 195 158 194 177 177 170 184 178 184 183 167 178 169 178 186 192 173 171 235 188 209 282 233 225 229 232 228 238 243 257 271 270 296 304 305 303 312
Wind_Speed_850mb
52 47 43 40 37 36 32 32 37 35 31 35 35 36 35 34 32 29 26 23 20 25 14 18 20 14 14 18 14 11 19 25 29 23 16 11 15 7 4 9 8 7 2 8 15
58 55 51 46 40 36 34 32 35 38 32 32 33 32 32 32 30 36 33 33 24 20 17 11 14 16 24 21 12 25 23 35 30 19 15 17 17 14 12 17 18 16 12 12 15
57 60 58 53 47 40 35 33 31 36 34 32 28 28 27 23 19 24 34 42 33 24 18 17 12 18 25 20 26 19 33 29 24 16 19 19 20 15 19 16 17 15 18 19 21
64 59 63 58 54 47 39 36 33 32 35 31 27 23 20 18 14 11 21 35 44 27 16 11 16 21 20 22 30 21 31 41 27 7 13 23 23 20 27 31 4 12 12 19 22
75 65 62 63 59 54 46 40 37 33 36 31 29 25 23 20 30 17 5 14 38 34 26 22 23 25 22 18 18 27 36 29 33 8 20 13 27 35 39 39 33 24 23 22 24
78 77 66 65 63 60 55 46 42 37 36 33 33 30 28 35 21 33 12 6 26 32 30 29 16 21 13 20 21 8 37 29 25 28 26 25 39 41 33 47 43 37 38 37 34
73 78 79 65 66 63 60 52 46 39 37 35 35 35 35 39 16 27 26 12 21 34 29 28 22 21 11 11 18 15 14 22 33 40 34 25 39 46 53 48 46 44 44 40 43
75 77 77 79 66 67 64 58 51 44 39 36 38 31 36 35 35 18 25 24 15 24 27 25 20 22 18 7 7 13 21 26 26 38 17 17 37 29 39 51 51 54 55 54 50
80 76 81 76 78 68 67 62 54 47 42 40 40 32 17 28 41 39 20 20 19 21 22 21 21 23 19 18 19 19 23 33 34 17 24 29 28 22 25 42 45 44 44 43 45
69 81 80 83 79 75 71 66 59 49 46 42 39 27 34 29 29 47 30 27 24 28 19 25 22 19 24 24 21 24 32 29 24 10 25 36 41 37 40 38 43 45 48 49 52
69 67 80 82 83 82 73 73 56 29 71 43 26 32 5 30 32 37 43 37 28 39 26 42 29 36 38 40 30 9 26 25 20 9 15 32 42 42 53 54 52 53 57 61 66
106 67 80 78 83 83 84 96 90 36 40 71 23 68 12 28 19 37 45 38 43 33 38 25 39 35 35 33 34 37 21 20 16 16 22 35 48 45 54 58 58 57 61 66 65
82 100 63 74 80 82 97 108 85 44 15 55 47 47 38 31 30 50 60 52 45 39 47 33 5 47 34 33 33 34 35 27 28 27 32 39 51 43 38 59 61 61 66 63 63
88 98 83 63 80 94 102 100 87 62 13 22 34 32 44 32 24 37 60 57 25 44 39 32 34 22 38 39 32 32 28 23 25 16 12 9 20 31 28 29 26 33 37 45 49
82 82 104 83 57 94 107 97 98 49 28 38 40 30 61 54 37 40 64 58 34 31 36 22 31 29 41 33 32 20 12 17 23 21 26 30 17 12 19 23 31 23 27 36 41
83 76 75 104 87 91 94 91 92 22 23 29 45 48 43 61 36 52 58 45 37 29 41 35 0 20 32 28 30 13 14 16 13 13 17 28 27 34 30 31 33 30 16 20 28
82 81 84 102 67 82 86 83 32 36 23 14 47 63 68 38 40 44 55 48 29 19 27 20 17 8 16 31 27 25 26 9 10 10 16 8 23 39 4 14 19 25 34 32 29
81 84 80 85 110 67 90 38 50 39 33 17 38 65 58 54 43 48 57 49 50 41 29 29 20 34 30 37 19 41 35 11 14 16 15 23 23 18 8 12 31 31 41 37 30
65 80 82 86 98 93 60 54 53 43 32 37 54 60 36 46 28 42 62 61 59 57 28 35 36 43 42 29 32 34 38 31 7 6 6 21 36 36 37 31 35 39 39 37 19
75 74 91 88 108 83 26 36 28 27 43 59 33 41 39 47 37 44 54 56 59 60 53 21 20 20 25 34 38 27 30 17 18 13 16 26 35 28 6 8 25 19 4 12 9
71 46 79 88 74 38 18 26 17 56 66 52 43 24 34 43 49 57 59 33 62 61 54 25 18 13 26 36 40 21 26 25 23 23 16 21 23 19 27 17 18 6 9 22 30
73 28 44 67 26 8 21 11 11 57 78 31 40 50 51 60 54 55 48 51 90 60 62 44 14 13 41 18 37 47 42 44 19 24 21 27 39 12 10 11 12 34 34 26 42
64 32 40 73 25 29 8 16 5 42 61 41 33 26 51 44 33 48 51 54 49 54 50 41 17 14 13 12 26 29 45 39 44 27 22 24 27 17 25 20 14 15 35 41 47
30 10 24 55 25 20 20 34 28 59 45 39 44 41 54 45 27 44 41 40 19 62 51 50 22 36 33 20 25 36 45 48 39 24 46 36 58 54 41 35 34 46 40 46 54
42 11 33 15 23 24 29 27 31 25 11 45 51 52 55 35 38 31 44 21 24 49 45 28 34 35 44 22 19 26 40 48 51 59 43 57 53 58 46 36 36 46 53 47 51
21 12 10 11 35 35 41 18 56 32 25 21 39 59 56 40 48 41 59 34 31 38 50 37 8 31 16 28 19 19 30 47 54 62 50 60 48 58 53 54 51 39 43 47 36
29 43 14 23 21 19 30 17 40 49 22 41 64 46 51 48 57 59 65 57 24 59 59 44 17 16 28 18 13 12 56 43 50 49 52 48 64 59 37 32 36 39 41 37 33
Wind_Direction_850mb
246 248 251 250 247 246 244 240 236 239 239 238 235 232 240 248 252 255 251 244 245 251 258 242 227 233 245 245 239 244 245 248 237 238 247 155 204 174 191 249 219 228 275 131 168
242 243 244 246 246 243 242 240 234 236 238 238 235 233 234 245 254 259 242 238 249 248 232 233 214 208 219 238 231 228 237 240 254 261 244 192 221 180 205 201 220 231 212 222 201
241 240 241 242 241 241 240 239 236 233 234 234 237 232 235 239 274 258 234 233 234 234 222 222 216 202 220 236 224 233 246 251 248 247 258 228 222 205 226 229 223 217 221 209 202
239 238 238 238 240 239 238 235 233 231 230 230 227 223 215 191 233 253 248 224 216 218 210 203 195 201 213 214 225 252 244 257 266 207 233 229 240 219 232 241 243 240 234 204 209
238 237 236 235 236 237 237 236 233 226 223 226 212 206 187 211 241 267 290 227 209 212 207 202 202 208 217 232 216 246 253 245 249 235 241 248 234 245 252 247 250 246 237 228 230
240 236 235 234 233 232 233 232 229 224 217 218 207 202 197 229 241 242 248 255 199 201 207 205 215 211 270 232 217 313 248 242 246 251 245 236 246 242 241 250 251 244 247 247 246
237 237 234 233 231 230 230 230 226 223 216 212 208 209 218 224 245 230 216 217 199 203 205 206 211 200 205 230 230 227 237 240 249 248 244 254 255 245 246 254 257 252 248 249 248
240 235 233 232 231 228 227 225 222 218 216 208 203 203 227 232 237 233 207 216 203 191 203 204 208 217 216 137 180 232 241 250 241 230 237 224 263 253 238 255 255 255 255 255 251
237 236 234 230 228 226 224 223 220 214 210 201 200 199 227 220 220 209 195 205 187 180 182 192 196 205 191 205 219 210 244 231 248 222 241 220 270 262 253 251 258 262 258 258 259
236 234 234 233 228 224 221 218 214 208 202 200 204 197 233 211 195 206 205 182 178 178 178 185 192 202 209 203 210 227 229 251 243 217 238 255 256 265 266 259 267 270 268 264 261
231 232 231 231 229 223 216 213 189 193 196 186 195 200 12 192 194 192 189 181 191 187 189 192 198 208 205 215 233 305 280 248 240 227 281 259 268 269 269 262 257 258 263 264 261
246 246 224 226 226 222 216 208 194 197 193 207 213 205 188 182 173 190 181 177 186 196 198 182 222 214 222 227 230 241 251 252 256 258 280 283 277 273 265 259 254 255 255 258 262
245 243 225 225 225 220 215 211 197 182 182 203 206 204 197 186 200 194 187 190 192 194 198 196 188 213 217 221 228 232 241 249 267 290 285 280 283 265 248 249 248 250 252 256 260
239 236 231 219 223 218 217 214 196 178 201 178 194 205 192 187 219 199 192 185 190 204 198 229 224 200 210 219 210 229 224 251 267 272 267 58 293 285 290 275 249 242 246 257 261
233 242 237 232 229 215 214 209 198 173 222 163 174 181 178 178 140 197 189 201 203 184 193 203 207 198 212 211 205 232 216 225 242 254 282 269 274 271 246 264 264 243 244 264 273
231 234 234 232 251 218 210 206 176 208 226 162 155 171 165 196 191 161 180 200 209 211 205 215 111 222 219 205 205 194 179 203 227 239 249 243 234 272 254 243 263 274 263 277 288
231 236 230 232 245 212 201 191 189 214 135 188 163 168 180 174 178 171 176 186 179 165 205 212 199 192 243 199 196 187 183 181 216 222 251 205 217 244 16 314 282 287 291 292 292
230 230 228 227 232 213 202 194 222 186 164 149 166 172 182 169 185 182 176 189 201 199 173 193 207 204 195 190 182 192 187 192 211 217 255 204 242 249 262 277 249 264 285 290 291
221 223 227 229 234 225 245 209 207 187 141 154 167 173 177 176 156 179 189 195 194 193 196 195 219 181 179 195 179 198 215 217 315 192 276 239 251 262 256 244 250 261 273 289 292
213 220 225 217 224 224 231 252 208 140 159 158 166 178 174 172 165 186 193 206 200 201 215 179 193 190 166 199 211 199 194 193 215 220 233 244 249 250 179 242 208 277 298 320 337
211 210 225 220 219 209 244 244 207 164 161 175 163 164 172 172 182 187 190 183 196 201 206 206 205 185 154 207 186 186 203 213 200 227 231 259 254 256 256 223 250 253 281 324 325
204 214 206 199 201 213 212 248 206 174 170 181 167 163 172 179 186 190 199 205 195 188 195 203 191 167 204 195 222 210 215 203 199 210 235 263 269 241 208 161 273 277 305 324 319
201 180 207 190 210 213 239 208 229 186 178 156 165 165 171 170 188 191 204 192 188 187 187 188 186 149 172 267 225 231 224 223 232 248 230 221 253 203 238 253 261 257 315 318 312
180 190 217 197 192 211 225 254 181 193 176 168 167 162 167 177 176 185 199 182 176 193 185 174 191 202 201 213 157 206 219 223 226 234 239 240 259 266 266 281 292 314 314 310 311
197 191 181 164 181 189 235 199 178 171 199 188 176 171 161 165 179 181 187 151 179 199 184 187 215 212 230 215 180 202 211 216 217 229 225 240 243 262 272 284 315 309 303 312 315
205 220 134 155 154 176 224 240 181 169 157 183 171 164 171 166 172 177 178 174 178 190 187 201 205 223 235 243 245 245 221 220 223 231 238 249 258 259 277 299 290 292 311 309 316
206 209 177 160 150 168 209 201 195 158 194 177 177 170 184 178 184 183 167 178 169 178 186 192 173 171 235 188 209 282 233 225 229 232 228 238 243 257 271 270 296 304 305 303 312